contact:dominique.lefevre@mio.osupytheas.fr, maurice.libes@osupytheas.fr, didier.mallarino@osupytheas.fr
Project:EMSO http://www.emso-fr.org/EMSO-France
Depth: 2436.0 m
Title:EMSO Ligure Ouest : Data MII capteur MICROCAT
DateTime_Computer,Latitude,Longitude,Temperature,Conductivity,Pressure,DateTime_Instrument
DateTime_Computer,Latitude,Longitude,degC,S m-1,dbar,DateTime_Instrument
2020-09-28T00:02:05Z,42.805,6.029,13.2987,4.60004,2470.063,2020-9-28T02:02:57Z
2020-09-28T00:05:06Z,42.805,6.029,13.2988,4.60000,2470.04,2020-9-28T02:05:59Z
2020-09-28T00:08:10Z,42.805,6.029,13.2993,4.60006,2470.04,2020-9-28T02:09:02Z
2020-09-28T00:11:13Z,42.805,6.029,13.2990,4.60006,2470.04,2020-9-28T02:12:06Z
2020-09-28T00:14:15Z,42.805,6.029,13.2990,4.60003,2470.04,2020-9-28T02:15:07Z
2020-09-28T00:17:18Z,42.805,6.029,13.2991,4.59996,2470.053,2020-9-28T02:18:11Z
2020-09-28T00:20:21Z,42.805,6.029,13.2992,4.60003,2470.03,2020-9-28T02:21:14Z
2020-09-28T00:23:25Z,42.805,6.029,13.2990,4.59999,2470.077,2020-9-28T02:24:17Z
2020-09-28T00:26:28Z,42.805,6.029,13.2986,4.60003,2470.04,2020-9-28T02:27:21Z
2020-09-28T00:29:31Z,42.805,6.029,13.2991,4.59999,2470.077,2020-9-28T02:30:24Z
2020-09-28T00:32:35Z,42.805,6.029,13.2986,4.60003,2470.04,2020-9-28T02:33:27Z
2020-09-28T00:35:38Z,42.805,6.029,13.2989,4.59998,2470.063,2020-9-28T02:36:31Z
2020-09-28T00:38:42Z,42.805,6.029,13.2987,4.59995,2470.063,2020-9-28T02:39:34Z
2020-09-28T00:41:45Z,42.805,6.029,13.2988,4.59998,2470.087,2020-9-28T02:42:37Z
2020-09-28T00:44:48Z,42.805,6.029,13.2986,4.59998,2470.04,2020-9-28T02:45:41Z
2020-09-28T00:47:51Z,42.805,6.029,13.2989,4.59999,2470.073,2020-9-28T02:48:44Z
2020-09-28T00:50:55Z,42.805,6.029,13.2990,4.59999,2470.063,2020-9-28T02:51:48Z
2020-09-28T00:53:59Z,42.805,6.029,13.2988,4.59995,2470.063,2020-9-28T02:54:51Z
2020-09-28T00:57:02Z,42.805,6.029,13.2990,4.60004,2470.063,2020-9-28T02:57:54Z
2020-09-28T01:00:03Z,42.805,6.029,13.2988,4.59997,2470.04,2020-9-28T03:00:56Z
2020-09-28T01:03:08Z,42.805,6.029,13.2996,4.60002,2470.063,2020-9-28T03:04:00Z
2020-09-28T01:06:09Z,42.805,6.029,13.2991,4.60004,2470.063,2020-9-28T03:07:02Z
2020-09-28T01:09:12Z,42.805,6.029,13.2990,4.60003,2470.077,2020-9-28T03:10:05Z
2020-09-28T01:12:14Z,42.805,6.029,13.2988,4.59996,2470.063,2020-9-28T03:13:07Z
2020-09-28T01:15:16Z,42.805,6.029,13.2989,4.60003,2470.053,2020-9-28T03:16:08Z
2020-09-28T01:18:17Z,42.805,6.029,13.2990,4.60004,2470.04,2020-9-28T03:19:10Z
2020-09-28T01:21:20Z,42.805,6.029,13.2991,4.59999,2470.063,2020-9-28T03:22:13Z
2020-09-28T01:24:23Z,42.805,6.029,13.2986,4.60005,2470.063,2020-9-28T03:25:15Z
2020-09-28T01:27:27Z,42.805,6.029,13.2993,4.59999,2470.04,2020-9-28T03:28:20Z
2020-09-28T01:30:30Z,42.805,6.029,13.2986,4.60000,2470.124,2020-9-28T03:31:22Z
2020-09-28T01:33:34Z,42.805,6.029,13.2986,4.60002,2470.077,2020-9-28T03:34:26Z
2020-09-28T01:36:36Z,42.805,6.029,13.2990,4.60004,2470.03,2020-9-28T03:37:28Z
2020-09-28T01:39:40Z,42.805,6.029,13.2990,4.60005,2470.053,2020-9-28T03:40:33Z
2020-09-28T01:42:44Z,42.805,6.029,13.2986,4.59995,2470.087,2020-9-28T03:43:37Z
2020-09-28T01:45:47Z,42.805,6.029,13.2991,4.59996,2470.04,2020-9-28T03:46:40Z
2020-09-28T01:48:50Z,42.805,6.029,13.2985,4.59997,2470.017,2020-9-28T03:49:43Z
2020-09-28T01:51:55Z,42.805,6.029,13.2990,4.59998,2470.053,2020-9-28T03:52:47Z
2020-09-28T01:54:56Z,42.805,6.029,13.2991,4.59996,2470.04,2020-9-28T03:55:49Z
2020-09-28T01:58:00Z,42.805,6.029,13.2988,4.59994,2470.077,2020-9-28T03:58:52Z
2020-09-28T02:01:03Z,42.805,6.029,13.2986,4.59998,2470.053,2020-9-28T04:01:56Z
2020-09-28T02:04:05Z,42.805,6.029,13.2990,4.59998,2470.1,2020-9-28T04:04:58Z
2020-09-28T02:07:08Z,42.805,6.029,13.2983,4.59999,2470.077,2020-9-28T04:08:00Z
2020-09-28T02:10:12Z,42.805,6.029,13.2986,4.59998,2470.04,2020-9-28T04:11:05Z
2020-09-28T02:13:15Z,42.805,6.029,13.2984,4.59992,2470.053,2020-9-28T04:14:08Z
2020-09-28T02:16:18Z,42.805,6.029,13.2986,4.59992,2470.04,2020-9-28T04:17:10Z
2020-09-28T02:19:19Z,42.805,6.029,13.2990,4.59996,2470.087,2020-9-28T04:20:12Z
2020-09-28T02:22:22Z,42.805,6.029,13.2986,4.59999,2470.087,2020-9-28T04:23:14Z
2020-09-28T02:25:27Z,42.805,6.029,13.2987,4.60004,2470.04,2020-9-28T04:26:19Z
2020-09-28T02:28:29Z,42.805,6.029,13.2990,4.60000,2470.124,2020-9-28T04:29:21Z
2020-09-28T02:31:30Z,42.805,6.029,13.2992,4.59995,2470.063,2020-9-28T04:32:23Z
2020-09-28T02:34:32Z,42.805,6.029,13.2989,4.60003,2470.063,2020-9-28T04:35:24Z
2020-09-28T02:37:34Z,42.805,6.029,13.2979,4.59998,2470.053,2020-9-28T04:38:26Z
2020-09-28T02:40:37Z,42.805,6.029,13.2989,4.59996,2470.063,2020-9-28T04:41:29Z
2020-09-28T02:43:38Z,42.805,6.029,13.2989,4.59994,2470.053,2020-9-28T04:44:31Z
2020-09-28T02:46:42Z,42.805,6.029,13.2986,4.59994,2470.087,2020-9-28T04:47:34Z
2020-09-28T02:49:44Z,42.805,6.029,13.2987,4.59996,2470.087,2020-9-28T04:50:36Z
2020-09-28T02:52:48Z,42.805,6.029,13.2984,4.59993,2470.063,2020-9-28T04:53:40Z
2020-09-28T02:55:52Z,42.805,6.029,13.2990,4.59996,2470.11,2020-9-28T04:56:45Z
2020-09-28T02:58:55Z,42.805,6.029,13.2989,4.59996,2470.04,2020-9-28T04:59:48Z
2020-09-28T03:01:58Z,42.805,6.029,13.2991,4.59995,2470.053,2020-9-28T05:02:50Z
2020-09-28T03:05:02Z,42.805,6.029,13.2991,4.59999,2470.063,2020-9-28T05:05:55Z
2020-09-28T03:08:04Z,42.805,6.029,13.2991,4.59996,2470.1,2020-9-28T05:08:57Z
2020-09-28T03:11:08Z,42.805,6.029,13.2990,4.60004,2470.11,2020-9-28T05:12:01Z
2020-09-28T03:14:09Z,42.805,6.029,13.2986,4.59997,2470.087,2020-9-28T05:15:02Z
2020-09-28T03:17:14Z,42.805,6.029,13.2989,4.59996,2470.087,2020-9-28T05:18:06Z
2020-09-28T03:20:18Z,42.805,6.029,13.2988,4.60003,2470.077,2020-9-28T05:21:11Z
2020-09-28T03:23:23Z,42.805,6.029,13.2985,4.59993,2470.04,2020-9-28T05:24:16Z
2020-09-28T03:26:25Z,42.805,6.029,13.2990,4.59994,2470.1,2020-9-28T05:27:18Z
2020-09-28T03:29:30Z,42.805,6.029,13.2991,4.59993,2470.087,2020-9-28T05:30:22Z
2020-09-28T03:32:33Z,42.805,6.029,13.2986,4.59995,2470.11,2020-9-28T05:33:26Z
2020-09-28T03:35:36Z,42.805,6.029,13.2984,4.59991,2470.087,2020-9-28T05:36:29Z
2020-09-28T03:38:41Z,42.805,6.029,13.2987,4.59994,2470.11,2020-9-28T05:39:34Z
2020-09-28T03:41:45Z,42.805,6.029,13.2988,4.59997,2470.11,2020-9-28T05:42:38Z
2020-09-28T03:44:48Z,42.805,6.029,13.2989,4.59998,2470.063,2020-9-28T05:45:41Z
2020-09-28T03:47:52Z,42.805,6.029,13.2986,4.59991,2470.063,2020-9-28T05:48:45Z
2020-09-28T03:50:56Z,42.805,6.029,13.2986,4.59992,2470.11,2020-9-28T05:51:49Z
2020-09-28T03:54:01Z,42.805,6.029,13.2987,4.59995,2470.063,2020-9-28T05:54:53Z
2020-09-28T03:57:04Z,42.805,6.029,13.2988,4.59994,2470.077,2020-9-28T05:57:57Z
2020-09-28T04:00:07Z,42.805,6.029,13.2988,4.59992,2470.087,2020-9-28T06:01:00Z
2020-09-28T04:03:12Z,42.805,6.029,13.2989,4.59996,2470.133,2020-9-28T06:04:05Z
2020-09-28T04:06:15Z,42.805,6.029,13.2990,4.59995,2470.124,2020-9-28T06:07:08Z
2020-09-28T04:09:19Z,42.805,6.029,13.2987,4.59992,2470.11,2020-9-28T06:10:11Z
2020-09-28T04:12:23Z,42.805,6.029,13.2988,4.59994,2470.133,2020-9-28T06:13:15Z
2020-09-28T04:15:26Z,42.805,6.029,13.2987,4.59996,2470.1,2020-9-28T06:16:19Z
2020-09-28T04:18:30Z,42.805,6.029,13.2988,4.59992,2470.11,2020-9-28T06:19:23Z
2020-09-28T04:21:32Z,42.805,6.029,13.2991,4.59996,2470.11,2020-9-28T06:22:25Z
2020-09-28T04:24:36Z,42.805,6.029,13.2995,4.59994,2470.124,2020-9-28T06:25:29Z
2020-09-28T04:27:40Z,42.805,6.029,13.2985,4.59995,2470.133,2020-9-28T06:28:33Z
2020-09-28T04:30:41Z,42.805,6.029,13.2988,4.59992,2470.124,2020-9-28T06:31:34Z
2020-09-28T04:33:44Z,42.805,6.029,13.2991,4.59994,2470.11,2020-9-28T06:34:36Z
2020-09-28T04:36:48Z,42.805,6.029,13.2985,4.59993,2470.11,2020-9-28T06:37:41Z
2020-09-28T04:39:49Z,42.805,6.029,13.2985,4.59993,2470.133,2020-9-28T06:40:42Z
2020-09-28T04:42:50Z,42.805,6.029,13.2986,4.59991,2470.11,2020-9-28T06:43:43Z
2020-09-28T04:45:55Z,42.805,6.029,13.2986,4.59991,2470.133,2020-9-28T06:46:48Z
2020-09-28T04:48:59Z,42.805,6.029,13.2985,4.59992,2470.133,2020-9-28T06:49:52Z
2020-09-28T04:52:03Z,42.805,6.029,13.2987,4.59994,2470.11,2020-9-28T06:52:56Z
2020-09-28T04:55:07Z,42.805,6.029,13.2981,4.59991,2470.124,2020-9-28T06:56:00Z
2020-09-28T04:58:11Z,42.805,6.029,13.2982,4.59994,2470.147,2020-9-28T06:59:04Z
2020-09-28T05:01:13Z,42.805,6.029,13.2985,4.59994,2470.11,2020-9-28T07:02:06Z
2020-09-28T05:04:15Z,42.805,6.029,13.2991,4.59991,2470.147,2020-9-28T07:05:07Z
2020-09-28T05:07:19Z,42.805,6.029,13.2987,4.60000,2470.11,2020-9-28T07:08:12Z
2020-09-28T05:10:24Z,42.805,6.029,13.2987,4.59992,2470.087,2020-9-28T07:11:17Z
2020-09-28T05:13:26Z,42.805,6.029,13.2983,4.59993,2470.11,2020-9-28T07:14:18Z
2020-09-28T05:16:30Z,42.805,6.029,13.2987,4.60000,2470.11,2020-9-28T07:17:23Z
2020-09-28T05:19:35Z,42.805,6.029,13.2987,4.59994,2470.11,2020-9-28T07:20:28Z
2020-09-28T05:22:39Z,42.805,6.029,13.2987,4.60006,2470.156,2020-9-28T07:23:32Z
2020-09-28T05:25:43Z,42.805,6.029,13.2988,4.60002,2470.1,2020-9-28T07:26:36Z
2020-09-28T05:28:46Z,42.805,6.029,13.2985,4.59996,2470.11,2020-9-28T07:29:38Z
2020-09-28T05:31:49Z,42.805,6.029,13.2986,4.60000,2470.156,2020-9-28T07:32:42Z
2020-09-28T05:34:51Z,42.805,6.029,13.2986,4.59994,2470.11,2020-9-28T07:35:44Z
2020-09-28T05:37:55Z,42.805,6.029,13.2988,4.59996,2470.11,2020-9-28T07:38:47Z
2020-09-28T05:40:56Z,42.805,6.029,13.2985,4.59994,2470.124,2020-9-28T07:41:49Z
2020-09-28T05:43:58Z,42.805,6.029,13.2990,4.59998,2470.11,2020-9-28T07:44:50Z
2020-09-28T05:47:02Z,42.805,6.029,13.2983,4.59992,2470.1,2020-9-28T07:47:55Z
2020-09-28T05:50:03Z,42.805,6.029,13.2987,4.59993,2470.124,2020-9-28T07:50:56Z
2020-09-28T05:53:08Z,42.805,6.029,13.2988,4.59991,2470.11,2020-9-28T07:54:00Z
2020-09-28T05:56:11Z,42.805,6.029,13.2989,4.59997,2470.124,2020-9-28T07:57:04Z
2020-09-28T05:59:13Z,42.805,6.029,13.2986,4.59992,2470.147,2020-9-28T08:00:06Z
2020-09-28T06:02:14Z,42.805,6.029,13.2987,4.59996,2470.11,2020-9-28T08:03:07Z
2020-09-28T06:05:19Z,42.805,6.029,13.2983,4.59995,2470.11,2020-9-28T08:06:12Z
2020-09-28T06:08:21Z,42.805,6.029,13.2984,4.59994,2470.147,2020-9-28T08:09:14Z
2020-09-28T06:11:25Z,42.805,6.029,13.2991,4.59995,2470.11,2020-9-28T08:12:18Z
2020-09-28T06:14:28Z,42.805,6.029,13.2990,4.60007,2470.11,2020-9-28T08:15:21Z
2020-09-28T06:17:30Z,42.805,6.029,13.2982,4.59996,2470.133,2020-9-28T08:18:23Z
2020-09-28T06:20:35Z,42.805,6.029,13.2986,4.59990,2470.156,2020-9-28T08:21:28Z
2020-09-28T06:23:39Z,42.805,6.029,13.2986,4.59994,2470.133,2020-9-28T08:24:31Z
2020-09-28T06:26:43Z,42.805,6.029,13.2988,4.59991,2470.133,2020-9-28T08:27:35Z
2020-09-28T06:29:46Z,42.805,6.029,13.2990,4.60000,2470.087,2020-9-28T08:30:39Z
2020-09-28T06:32:49Z,42.805,6.029,13.2986,4.59990,2470.11,2020-9-28T08:33:42Z
2020-09-28T06:35:53Z,42.805,6.029,13.2988,4.59993,2470.11,2020-9-28T08:36:45Z
2020-09-28T06:38:56Z,42.805,6.029,13.2987,4.59991,2470.133,2020-9-28T08:39:49Z
2020-09-28T06:42:01Z,42.805,6.029,13.2985,4.59992,2470.156,2020-9-28T08:42:54Z
2020-09-28T06:45:06Z,42.805,6.029,13.2990,4.59997,2470.156,2020-9-28T08:45:59Z
2020-09-28T06:48:09Z,42.805,6.029,13.2990,4.60009,2470.124,2020-9-28T08:49:02Z
2020-09-28T06:51:14Z,42.805,6.029,13.2990,4.59996,2470.11,2020-9-28T08:52:07Z
2020-09-28T06:54:16Z,42.805,6.029,13.2986,4.59997,2470.147,2020-9-28T08:55:09Z
2020-09-28T06:57:19Z,42.805,6.029,13.2986,4.59992,2470.11,2020-9-28T08:58:12Z
2020-09-28T07:00:23Z,42.805,6.029,13.2989,4.60013,2470.147,2020-9-28T09:01:16Z
2020-09-28T07:03:27Z,42.805,6.029,13.2991,4.59998,2470.11,2020-9-28T09:04:19Z
2020-09-28T07:06:28Z,42.805,6.029,13.2989,4.60009,2470.11,2020-9-28T09:07:21Z
2020-09-28T07:09:31Z,42.805,6.029,13.2988,4.60008,2470.133,2020-9-28T09:10:24Z
2020-09-28T07:12:35Z,42.805,6.029,13.2988,4.60000,2470.147,2020-9-28T09:13:28Z
2020-09-28T07:15:38Z,42.805,6.029,13.2986,4.59994,2470.133,2020-9-28T09:16:31Z
2020-09-28T07:18:41Z,42.805,6.029,13.2996,4.59997,2470.156,2020-9-28T09:19:34Z
2020-09-28T07:21:42Z,42.805,6.029,13.2983,4.59996,2470.11,2020-9-28T09:22:35Z
2020-09-28T07:24:47Z,42.805,6.029,13.2986,4.59995,2470.1,2020-9-28T09:25:39Z
2020-09-28T07:27:50Z,42.805,6.029,13.2990,4.59994,2470.124,2020-9-28T09:28:43Z
2020-09-28T07:30:55Z,42.805,6.029,13.2985,4.59999,2470.133,2020-9-28T09:31:47Z
2020-09-28T07:33:58Z,42.805,6.029,13.2990,4.60005,2470.1,2020-9-28T09:34:51Z
2020-09-28T07:37:02Z,42.805,6.029,13.2983,4.60001,2470.133,2020-9-28T09:37:55Z
2020-09-28T07:40:05Z,42.805,6.029,13.2990,4.59996,2470.124,2020-9-28T09:40:58Z
2020-09-28T07:43:09Z,42.805,6.029,13.2987,4.60002,2470.124,2020-9-28T09:44:01Z
2020-09-28T07:46:12Z,42.805,6.029,13.2983,4.59992,2470.11,2020-9-28T09:47:05Z
2020-09-28T07:49:17Z,42.805,6.029,13.2984,4.59997,2470.133,2020-9-28T09:50:10Z
2020-09-28T07:52:21Z,42.805,6.029,13.2985,4.59998,2470.124,2020-9-28T09:53:13Z
2020-09-28T07:55:24Z,42.805,6.029,13.2987,4.59993,2470.124,2020-9-28T09:56:17Z
2020-09-28T07:58:26Z,42.805,6.029,13.2991,4.59996,2470.133,2020-9-28T09:59:19Z
2020-09-28T08:01:28Z,42.805,6.029,13.2987,4.59997,2470.133,2020-9-28T10:02:21Z
2020-09-28T08:04:31Z,42.805,6.029,13.2983,4.59998,2470.087,2020-9-28T10:05:24Z
2020-09-28T08:07:36Z,42.805,6.029,13.2985,4.59991,2470.11,2020-9-28T10:08:29Z
2020-09-28T08:10:39Z,42.805,6.029,13.2984,4.59991,2470.147,2020-9-28T10:11:32Z
2020-09-28T08:13:41Z,42.805,6.029,13.2984,4.59996,2470.147,2020-9-28T10:14:34Z
2020-09-28T08:16:43Z,42.805,6.029,13.2984,4.59993,2470.087,2020-9-28T10:17:35Z
2020-09-28T08:19:44Z,42.805,6.029,13.2982,4.59996,2470.087,2020-9-28T10:20:36Z
2020-09-28T08:22:47Z,42.805,6.029,13.2991,4.59996,2470.133,2020-9-28T10:23:40Z
2020-09-28T08:25:51Z,42.805,6.029,13.2990,4.59999,2470.11,2020-9-28T10:26:43Z
2020-09-28T08:28:52Z,42.805,6.029,13.2988,4.60015,2470.087,2020-9-28T10:29:44Z
2020-09-28T08:31:53Z,42.805,6.029,13.2987,4.60006,2470.11,2020-9-28T10:32:46Z
2020-09-28T08:34:57Z,42.805,6.029,13.2986,4.60005,2470.087,2020-9-28T10:35:50Z
2020-09-28T08:37:59Z,42.805,6.029,13.2993,4.60002,2470.11,2020-9-28T10:38:52Z
2020-09-28T08:41:00Z,42.805,6.029,13.2992,4.60003,2470.138,2020-9-28T10:41:53Z
2020-09-28T08:44:03Z,42.805,6.029,13.2987,4.59994,2470.087,2020-9-28T10:44:55Z
2020-09-28T08:47:06Z,42.805,6.029,13.2986,4.59992,2470.124,2020-9-28T10:47:59Z
2020-09-28T08:50:11Z,42.805,6.029,13.2986,4.59994,2470.11,2020-9-28T10:51:04Z
2020-09-28T08:53:16Z,42.805,6.029,13.2988,4.59998,2470.1,2020-9-28T10:54:08Z
2020-09-28T08:56:17Z,42.805,6.029,13.2987,4.59997,2470.087,2020-9-28T10:57:10Z
2020-09-28T08:59:19Z,42.805,6.029,13.2994,4.59997,2470.087,2020-9-28T11:00:11Z
2020-09-28T09:02:22Z,42.805,6.029,13.2995,4.60015,2470.11,2020-9-28T11:03:15Z
2020-09-28T09:05:26Z,42.805,6.029,13.2999,4.60019,2470.1,2020-9-28T11:06:18Z
2020-09-28T09:08:27Z,42.805,6.029,13.2989,4.60001,2470.11,2020-9-28T11:09:20Z
2020-09-28T09:11:31Z,42.805,6.029,13.2986,4.59994,2470.124,2020-9-28T11:12:23Z
2020-09-28T09:14:35Z,42.805,6.029,13.2986,4.60008,2470.087,2020-9-28T11:15:27Z
2020-09-28T09:17:37Z,42.805,6.029,13.2986,4.59998,2470.133,2020-9-28T11:18:30Z
2020-09-28T09:20:42Z,42.805,6.029,13.2985,4.60003,2470.087,2020-9-28T11:21:35Z
2020-09-28T09:23:46Z,42.805,6.029,13.2990,4.60000,2470.087,2020-9-28T11:24:39Z
2020-09-28T09:26:47Z,42.805,6.029,13.2983,4.59996,2470.1,2020-9-28T11:27:40Z
2020-09-28T09:29:51Z,42.805,6.029,13.2993,4.59996,2470.087,2020-9-28T11:30:44Z
2020-09-28T09:32:56Z,42.805,6.029,13.2990,4.60002,2470.077,2020-9-28T11:33:49Z
2020-09-28T09:35:59Z,42.805,6.029,13.2986,4.59999,2470.11,2020-9-28T11:36:52Z
2020-09-28T09:39:01Z,42.805,6.029,13.2995,4.60024,2470.1,2020-9-28T11:39:54Z
2020-09-28T09:42:03Z,42.805,6.029,13.2988,4.60009,2470.124,2020-9-28T11:42:56Z
2020-09-28T09:45:06Z,42.805,6.029,13.2996,4.60004,2470.1,2020-9-28T11:45:58Z
2020-09-28T09:48:10Z,42.805,6.029,13.2985,4.59998,2470.087,2020-9-28T11:49:02Z
2020-09-28T09:51:12Z,42.805,6.029,13.2995,4.60014,2470.087,2020-9-28T11:52:05Z
2020-09-28T09:54:15Z,42.805,6.029,13.2996,4.60002,2470.087,2020-9-28T11:55:07Z
2020-09-28T09:57:18Z,42.805,6.029,13.2988,4.60017,2470.1,2020-9-28T11:58:11Z
2020-09-28T10:00:22Z,42.805,6.029,13.2998,4.60021,2470.087,2020-9-28T12:01:15Z
2020-09-28T10:03:25Z,42.805,6.029,13.2985,4.59997,2470.077,2020-9-28T12:04:18Z
2020-09-28T10:06:28Z,42.805,6.029,13.2991,4.60020,2470.124,2020-9-28T12:07:21Z
2020-09-28T10:09:29Z,42.805,6.029,13.2983,4.60007,2470.124,2020-9-28T12:10:22Z
2020-09-28T10:12:33Z,42.805,6.029,13.2990,4.60009,2470.063,2020-9-28T12:13:25Z
2020-09-28T10:15:36Z,42.805,6.029,13.2983,4.60003,2470.063,2020-9-28T12:16:29Z
2020-09-28T10:18:40Z,42.805,6.029,13.2998,4.60003,2470.1,2020-9-28T12:19:32Z
2020-09-28T10:21:44Z,42.805,6.029,13.2990,4.59996,2470.1,2020-9-28T12:22:37Z
2020-09-28T10:24:47Z,42.805,6.029,13.2991,4.60002,2470.1,2020-9-28T12:25:40Z
2020-09-28T10:27:51Z,42.805,6.029,13.2986,4.60001,2470.087,2020-9-28T12:28:43Z
2020-09-28T10:30:52Z,42.805,6.029,13.2994,4.60015,2470.063,2020-9-28T12:31:45Z
2020-09-28T10:33:57Z,42.805,6.029,13.2992,4.60016,2470.063,2020-9-28T12:34:49Z
2020-09-28T10:37:01Z,42.805,6.029,13.2992,4.60006,2470.11,2020-9-28T12:37:53Z
2020-09-28T10:40:05Z,42.805,6.029,13.2991,4.60002,2470.077,2020-9-28T12:40:58Z
2020-09-28T10:43:09Z,42.805,6.029,13.2989,4.60004,2470.063,2020-9-28T12:44:02Z
2020-09-28T10:46:10Z,42.805,6.029,13.2985,4.59996,2470.063,2020-9-28T12:47:03Z
2020-09-28T10:49:14Z,42.805,6.029,13.2986,4.59997,2470.077,2020-9-28T12:50:07Z
2020-09-28T10:52:18Z,42.805,6.029,13.2990,4.60010,2470.077,2020-9-28T12:53:10Z
2020-09-28T10:55:21Z,42.805,6.029,13.2991,4.60021,2470.077,2020-9-28T12:56:14Z
2020-09-28T10:58:23Z,42.805,6.029,13.2989,4.59999,2470.063,2020-9-28T12:59:16Z
2020-09-28T11:01:25Z,42.805,6.029,13.2987,4.60001,2470.063,2020-9-28T13:02:18Z
2020-09-28T11:04:27Z,42.805,6.029,13.2990,4.59996,2470.063,2020-9-28T13:05:20Z
2020-09-28T11:07:32Z,42.805,6.029,13.2989,4.59997,2470.087,2020-9-28T13:08:24Z
2020-09-28T11:10:33Z,42.805,6.029,13.2989,4.59999,2470.1,2020-9-28T13:11:25Z
2020-09-28T11:13:36Z,42.805,6.029,13.2998,4.60003,2470.087,2020-9-28T13:14:28Z
2020-09-28T11:16:39Z,42.805,6.029,13.2985,4.60001,2470.087,2020-9-28T13:17:32Z
2020-09-28T11:19:41Z,42.805,6.029,13.2984,4.59996,2470.124,2020-9-28T13:20:34Z
2020-09-28T11:22:43Z,42.805,6.029,13.2988,4.59998,2470.1,2020-9-28T13:23:36Z
2020-09-28T11:25:47Z,42.805,6.029,13.2987,4.59998,2470.1,2020-9-28T13:26:39Z
2020-09-28T11:28:50Z,42.805,6.029,13.2986,4.60005,2470.087,2020-9-28T13:29:43Z
2020-09-28T11:31:53Z,42.805,6.029,13.2986,4.59999,2470.11,2020-9-28T13:32:46Z
2020-09-28T11:34:57Z,42.805,6.029,13.2988,4.60000,2470.1,2020-9-28T13:35:50Z
2020-09-28T11:38:02Z,42.805,6.029,13.2993,4.60003,2470.11,2020-9-28T13:38:54Z
2020-09-28T11:41:03Z,42.805,6.029,13.2984,4.60000,2470.087,2020-9-28T13:41:56Z
2020-09-28T11:44:06Z,42.805,6.029,13.2989,4.60006,2470.087,2020-9-28T13:44:59Z
2020-09-28T11:47:11Z,42.805,6.029,13.2983,4.60004,2470.11,2020-9-28T13:48:04Z
2020-09-28T11:50:14Z,42.805,6.029,13.2989,4.60006,2470.1,2020-9-28T13:51:06Z
2020-09-28T11:53:15Z,42.805,6.029,13.2991,4.60008,2470.124,2020-9-28T13:54:08Z
2020-09-28T11:56:19Z,42.805,6.029,13.2988,4.60001,2470.087,2020-9-28T13:57:12Z
2020-09-28T11:59:21Z,42.805,6.029,13.2985,4.59994,2470.11,2020-9-28T14:00:14Z
2020-09-28T12:02:24Z,42.805,6.029,13.2988,4.59999,2470.1,2020-9-28T14:03:16Z
2020-09-28T12:05:27Z,42.805,6.029,13.2985,4.59995,2470.063,2020-9-28T14:06:20Z
2020-09-28T12:08:30Z,42.805,6.029,13.2991,4.59996,2470.124,2020-9-28T14:09:23Z
2020-09-28T12:11:34Z,42.805,6.029,13.2986,4.59996,2470.1,2020-9-28T14:12:26Z
2020-09-28T12:14:37Z,42.805,6.029,13.2989,4.59992,2470.087,2020-9-28T14:15:29Z
2020-09-28T12:17:40Z,42.805,6.029,13.2988,4.59997,2470.063,2020-9-28T14:18:33Z
2020-09-28T12:20:42Z,42.805,6.029,13.2991,4.59999,2470.1,2020-9-28T14:21:35Z
2020-09-28T12:23:44Z,42.805,6.029,13.2988,4.60000,2470.11,2020-9-28T14:24:37Z
2020-09-28T12:26:46Z,42.805,6.029,13.2992,4.60005,2470.133,2020-9-28T14:27:39Z
2020-09-28T12:29:51Z,42.805,6.029,13.2990,4.60005,2470.11,2020-9-28T14:30:43Z
2020-09-28T12:32:53Z,42.805,6.029,13.2983,4.59996,2470.1,2020-9-28T14:33:45Z
2020-09-28T12:35:57Z,42.805,6.029,13.2987,4.59995,2470.124,2020-9-28T14:36:50Z
2020-09-28T12:39:00Z,42.805,6.029,13.2990,4.59995,2470.11,2020-9-28T14:39:53Z
2020-09-28T12:42:04Z,42.805,6.029,13.2989,4.59997,2470.124,2020-9-28T14:42:56Z
2020-09-28T12:45:06Z,42.805,6.029,13.2985,4.59999,2470.11,2020-9-28T14:45:58Z
2020-09-28T12:48:09Z,42.805,6.029,13.2991,4.59997,2470.11,2020-9-28T14:49:02Z
2020-09-28T12:51:13Z,42.805,6.029,13.2988,4.60000,2470.11,2020-9-28T14:52:05Z
2020-09-28T12:54:16Z,42.805,6.029,13.2986,4.60001,2470.1,2020-9-28T14:55:09Z
2020-09-28T12:57:19Z,42.805,6.029,13.2985,4.59999,2470.147,2020-9-28T14:58:12Z
2020-09-28T13:00:24Z,42.805,6.029,13.2989,4.59996,2470.11,2020-9-28T15:01:16Z
2020-09-28T13:03:29Z,42.805,6.029,13.2984,4.59997,2470.11,2020-9-28T15:04:21Z
2020-09-28T13:06:32Z,42.805,6.029,13.2987,4.60009,2470.087,2020-9-28T15:07:25Z
2020-09-28T13:09:37Z,42.805,6.029,13.2988,4.59993,2470.156,2020-9-28T15:10:30Z
2020-09-28T13:12:41Z,42.805,6.029,13.2993,4.59994,2470.11,2020-9-28T15:13:34Z
2020-09-28T13:15:45Z,42.805,6.029,13.2984,4.59994,2470.11,2020-9-28T15:16:37Z
2020-09-28T13:18:47Z,42.805,6.029,13.2991,4.59996,2470.147,2020-9-28T15:19:40Z
2020-09-28T13:21:51Z,42.805,6.029,13.2982,4.59994,2470.156,2020-9-28T15:22:44Z
2020-09-28T13:24:54Z,42.805,6.029,13.2985,4.59991,2470.133,2020-9-28T15:25:47Z
2020-09-28T13:27:59Z,42.805,6.029,13.2988,4.59994,2470.156,2020-9-28T15:28:51Z
